Time,TemperatureF,DewpointF,PressureIn,WindDirection,WindDirectionDegrees,WindSpeedMPH,WindSpeedGustMPH,Humidity,HourlyPrecipIn,Conditions,Clouds,dailyrainin,SolarRadiationWatts/m^2,SoftwareType,DateUTC
2013-10-07 00:01:00,65.0,2.0,-100.00,SSW,205,0.0,4.0,8,0.00,,,0.00,0.000000,,2013-10-07 07:01:00,
2013-10-07 00:12:00,65.0,2.0,-100.00,SSW,205,0.0,4.0,8,0.00,,,0.00,0.000000,,2013-10-07 07:12:00,
2013-10-07 00:22:00,65.0,2.0,-100.00,SSW,205,0.0,4.0,8,0.00,,,0.00,0.000000,,2013-10-07 07:22:00,
2013-10-07 00:52:00,66.0,3.0,-100.00,South,179,0.0,0.0,8,0.00,,,0.00,0.000000,,2013-10-07 07:52:00,
2013-10-07 01:03:00,66.0,3.0,-100.00,South,179,0.0,0.0,8,0.00,,,0.00,0.000000,,2013-10-07 08:03:00,
2013-10-07 01:11:00,66.0,3.0,-100.00,South,179,0.0,0.0,8,0.00,,,0.00,0.000000,,2013-10-07 08:11:00,
2013-10-07 01:21:00,66.0,3.0,-100.00,South,179,0.0,0.0,8,0.00,,,0.00,0.000000,,2013-10-07 08:21:00,
2013-10-07 01:52:00,65.0,2.0,-100.00,NE,53,0.0,4.0,8,0.00,,,0.00,0.000000,,2013-10-07 08:52:00,
2013-10-07 02:02:00,65.0,2.0,-100.00,NE,53,0.0,4.0,8,0.00,,,0.00,0.000000,,2013-10-07 09:02:00,
2013-10-07 02:11:00,65.0,2.0,-100.00,NE,53,0.0,4.0,8,0.00,,,0.00,0.000000,,2013-10-07 09:11:00,
2013-10-07 02:21:00,65.0,2.0,-100.00,NE,53,0.0,4.0,8,0.00,,,0.00,0.000000,,2013-10-07 09:21:00,
2013-10-07 02:54:00,63.0,1.0,-100.00,East,91,0.0,0.0,8,-99.99,,,0.00,0.000000,,2013-10-07 09:54:00,
2013-10-07 03:03:00,63.0,1.0,-100.00,East,91,0.0,0.0,8,-99.99,,,0.00,0.000000,,2013-10-07 10:03:00,
2013-10-07 03:13:00,63.0,1.0,-100.00,East,91,0.0,0.0,8,-99.99,,,0.00,0.000000,,2013-10-07 10:13:00,
2013-10-07 03:23:00,63.0,1.0,-100.00,East,91,0.0,0.0,8,-99.99,,,0.00,0.000000,,2013-10-07 10:23:00,
2013-10-07 04:12:00,64.0,2.0,-100.00,ESE,119,1.0,3.0,8,0.00,,,0.00,0.000000,,2013-10-07 11:12:00,
2013-10-07 04:52:00,62.0,0.0,-100.00,South,182,0.0,3.0,8,0.00,,,0.00,0.000000,,2013-10-07 11:52:00,
2013-10-07 05:02:00,62.0,0.0,-100.00,South,182,0.0,3.0,8,0.00,,,0.00,0.000000,,2013-10-07 12:02:00,
2013-10-07 05:12:00,62.0,0.0,-100.00,South,182,0.0,3.0,8,0.00,,,0.00,0.000000,,2013-10-07 12:12:00,
2013-10-07 05:21:00,62.0,0.0,-100.00,South,182,0.0,3.0,8,0.00,,,0.00,0.000000,,2013-10-07 12:21:00,
2013-10-07 05:52:00,62.0,0.0,-100.00,South,188,0.0,3.0,8,0.00,,,0.00,0.000000,,2013-10-07 12:52:00,
2013-10-07 06:01:00,62.0,0.0,-100.00,South,188,0.0,3.0,8,0.00,,,0.00,0.000000,,2013-10-07 13:01:00,
2013-10-07 06:11:00,62.0,0.0,-100.00,South,188,0.0,3.0,8,0.00,,,0.00,0.000000,,2013-10-07 13:11:00,
2013-10-07 06:21:00,62.0,0.0,-100.00,South,188,0.0,3.0,8,0.00,,,0.00,0.000000,,2013-10-07 13:21:00,
2013-10-07 06:52:00,62.0,0.0,-100.00,SSE,161,3.0,6.0,8,0.00,,,0.00,0.000000,,2013-10-07 13:52:00,
2013-10-07 07:01:00,62.0,0.0,-100.00,SSE,161,3.0,6.0,8,0.00,,,0.00,0.000000,,2013-10-07 14:01:00,
2013-10-07 07:11:00,62.0,0.0,-100.00,SSE,161,3.0,6.0,8,0.00,,,0.00,0.000000,,2013-10-07 14:11:00,
2013-10-07 07:22:00,62.0,0.0,-100.00,SSE,161,3.0,6.0,8,0.00,,,0.00,0.000000,,2013-10-07 14:22:00,
2013-10-07 07:52:00,61.0,2.0,-100.00,South,180,0.0,5.0,9,0.00,,,0.00,7.000000,,2013-10-07 14:52:00,
2013-10-07 08:01:00,61.0,2.0,-100.00,South,180,0.0,5.0,9,0.00,,,0.00,7.000000,,2013-10-07 15:01:00,
2013-10-07 09:13:00,65.0,2.0,-100.00,SSE,156,0.0,3.0,8,0.00,,,0.00,120.000000,,2013-10-07 16:13:00,
2013-10-07 09:23:00,65.0,2.0,-100.00,SSE,156,0.0,3.0,8,0.00,,,0.00,120.000000,,2013-10-07 16:23:00,
2013-10-07 09:53:00,67.0,4.0,-100.00,NE,43,0.0,3.0,8,0.00,,,0.00,386.000000,,2013-10-07 16:53:00,
2013-10-07 10:03:00,67.0,4.0,-100.00,NE,43,0.0,3.0,8,0.00,,,0.00,386.000000,,2013-10-07 17:03:00,
2013-10-07 10:12:00,67.0,4.0,-100.00,NE,43,0.0,3.0,8,0.00,,,0.00,386.000000,,2013-10-07 17:12:00,
2013-10-07 10:22:00,67.0,4.0,-100.00,NE,43,0.0,3.0,8,0.00,,,0.00,386.000000,,2013-10-07 17:22:00,
2013-10-07 10:52:00,69.0,5.0,-100.00,ENE,78,0.0,4.0,8,0.00,,,-99.99,367.000000,,2013-10-07 17:52:00,
2013-10-07 11:02:00,69.0,5.0,-100.00,ENE,78,0.0,4.0,8,0.00,,,-99.99,367.000000,,2013-10-07 18:02:00,
2013-10-07 11:12:00,69.0,5.0,-100.00,ENE,78,0.0,4.0,8,0.00,,,-99.99,367.000000,,2013-10-07 18:12:00,
2013-10-07 11:22:00,69.0,5.0,-100.00,ENE,78,0.0,4.0,8,0.00,,,-99.99,367.000000,,2013-10-07 18:22:00,
2013-10-07 11:52:00,73.0,5.0,-100.00,South,172,2.0,9.0,7,0.00,,,0.00,667.000000,,2013-10-07 18:52:00,
2013-10-07 12:02:00,73.0,5.0,-100.00,South,172,2.0,9.0,7,0.00,,,0.00,667.000000,,2013-10-07 19:02:00,
2013-10-07 12:11:00,73.0,5.0,-100.00,South,172,2.0,9.0,7,0.00,,,0.00,667.000000,,2013-10-07 19:11:00,
2013-10-07 12:22:00,73.0,5.0,-100.00,South,172,2.0,9.0,7,0.00,,,0.00,667.000000,,2013-10-07 19:22:00,
2013-10-07 12:53:00,73.0,5.0,-100.00,South,186,3.0,9.0,7,0.00,,,-99.99,650.000000,,2013-10-07 19:53:00,
2013-10-07 13:02:00,73.0,5.0,-100.00,South,186,3.0,9.0,7,0.00,,,-99.99,650.000000,,2013-10-07 20:02:00,
2013-10-07 13:12:00,73.0,5.0,-100.00,South,186,3.0,9.0,7,0.00,,,-99.99,650.000000,,2013-10-07 20:12:00,
2013-10-07 13:22:00,73.0,5.0,-100.00,South,186,3.0,9.0,7,0.00,,,-99.99,650.000000,,2013-10-07 20:22:00,
2013-10-07 13:52:00,73.0,2.0,-100.00,SSE,165,9.0,17.0,6,0.00,,,0.00,1025.000000,,2013-10-07 20:52:00,
2013-10-07 14:02:00,73.0,2.0,-100.00,SSE,165,9.0,17.0,6,0.00,,,0.00,1025.000000,,2013-10-07 21:02:00,
2013-10-07 14:12:00,73.0,2.0,-100.00,SSE,165,9.0,17.0,6,0.00,,,0.00,1025.000000,,2013-10-07 21:12:00,
2013-10-07 14:23:00,73.0,2.0,-100.00,SSE,165,9.0,17.0,6,0.00,,,0.00,1025.000000,,2013-10-07 21:23:00,
2013-10-07 14:55:00,73.0,8.0,-100.00,SSE,168,10.0,19.0,8,0.00,,,0.00,669.000000,,2013-10-07 21:55:00,
2013-10-07 15:04:00,73.0,8.0,-100.00,SSE,168,10.0,19.0,8,0.00,,,0.00,669.000000,,2013-10-07 22:04:00,
2013-10-07 15:13:00,73.0,8.0,-100.00,SSE,168,10.0,19.0,8,0.00,,,0.00,669.000000,,2013-10-07 22:13:00,
2013-10-07 15:24:00,73.0,8.0,-100.00,SSE,168,10.0,19.0,8,0.00,,,0.00,669.000000,,2013-10-07 22:24:00,
2013-10-07 15:53:00,78.0,9.0,-100.00,South,173,16.0,23.0,7,0.00,,,0.00,601.000000,,2013-10-07 22:53:00,
2013-10-07 16:02:00,78.0,9.0,-100.00,South,173,16.0,23.0,7,0.00,,,0.00,601.000000,,2013-10-07 23:02:00,
2013-10-07 16:12:00,78.0,9.0,-100.00,South,173,16.0,23.0,7,0.00,,,0.00,601.000000,,2013-10-07 23:12:00,
2013-10-07 16:22:00,78.0,9.0,-100.00,South,173,16.0,23.0,7,0.00,,,0.00,601.000000,,2013-10-07 23:22:00,
2013-10-07 16:52:00,77.0,8.0,-100.00,SSE,168,17.0,26.0,7,0.00,,,0.00,628.000000,,2013-10-07 23:52:00,
2013-10-07 17:02:00,77.0,8.0,-100.00,SSE,168,17.0,26.0,7,0.00,,,0.00,628.000000,,2013-10-08 00:02:00,
2013-10-07 17:11:00,77.0,8.0,-100.00,SSE,168,17.0,26.0,7,0.00,,,0.00,628.000000,,2013-10-08 00:11:00,
2013-10-07 17:21:00,77.0,8.0,-100.00,SSE,168,17.0,26.0,7,0.00,,,0.00,628.000000,,2013-10-08 00:21:00,
2013-10-07 17:52:00,74.0,6.0,-100.00,SSE,165,13.0,24.0,7,0.00,,,0.00,314.000000,,2013-10-08 00:52:00,
2013-10-07 18:02:00,74.0,6.0,-100.00,SSE,165,13.0,24.0,7,0.00,,,0.00,314.000000,,2013-10-08 01:02:00,
2013-10-07 18:12:00,74.0,6.0,-100.00,SSE,165,13.0,24.0,7,0.00,,,0.00,314.000000,,2013-10-08 01:12:00,
2013-10-07 18:21:00,74.0,6.0,-100.00,SSE,165,13.0,24.0,7,0.00,,,0.00,314.000000,,2013-10-08 01:21:00,
2013-10-07 18:52:00,72.0,1.0,-100.00,SSW,192,14.0,23.0,6,0.00,,,0.00,17.000000,,2013-10-08 01:52:00,
2013-10-07 19:03:00,72.0,1.0,-100.00,SSW,192,14.0,23.0,6,0.00,,,0.00,17.000000,,2013-10-08 02:03:00,
2013-10-07 19:11:00,72.0,1.0,-100.00,SSW,192,14.0,23.0,6,0.00,,,0.00,17.000000,,2013-10-08 02:11:00,
2013-10-07 19:21:00,72.0,1.0,-100.00,SSW,192,14.0,23.0,6,0.00,,,0.00,17.000000,,2013-10-08 02:21:00,
2013-10-07 19:52:00,72.0,5.0,-100.00,WSW,258,7.0,25.0,7,0.00,,,0.00,0.000000,,2013-10-08 02:52:00,
2013-10-07 20:02:00,72.0,5.0,-100.00,WSW,258,7.0,25.0,7,0.00,,,0.00,0.000000,,2013-10-08 03:02:00,
2013-10-07 20:11:00,72.0,5.0,-100.00,WSW,258,7.0,25.0,7,0.00,,,0.00,0.000000,,2013-10-08 03:11:00,
2013-10-07 20:22:00,72.0,5.0,-100.00,WSW,258,7.0,25.0,7,0.00,,,0.00,0.000000,,2013-10-08 03:22:00,
2013-10-07 20:55:00,70.0,3.0,-100.00,WSW,256,11.0,21.0,7,0.00,,,0.00,0.000000,,2013-10-08 03:55:00,
2013-10-07 21:04:00,70.0,3.0,-100.00,WSW,256,11.0,21.0,7,0.00,,,0.00,0.000000,,2013-10-08 04:04:00,
2013-10-07 21:14:00,70.0,3.0,-100.00,WSW,256,11.0,21.0,7,0.00,,,0.00,0.000000,,2013-10-08 04:14:00,
2013-10-07 21:23:00,70.0,3.0,-100.00,WSW,256,11.0,21.0,7,0.00,,,0.00,0.000000,,2013-10-08 04:23:00,
2013-10-07 21:53:00,67.0,1.0,-100.00,NW,325,22.0,28.0,7,0.00,,,0.00,0.000000,,2013-10-08 04:53:00,
2013-10-07 22:03:00,67.0,1.0,-100.00,NW,325,22.0,28.0,7,0.00,,,0.00,0.000000,,2013-10-08 05:03:00,
2013-10-07 22:13:00,67.0,1.0,-100.00,NW,325,22.0,28.0,7,0.00,,,0.00,0.000000,,2013-10-08 05:13:00,
2013-10-07 22:22:00,67.0,1.0,-100.00,NW,325,22.0,28.0,7,0.00,,,0.00,0.000000,,2013-10-08 05:22:00,
2013-10-07 22:53:00,68.0,2.0,-100.00,WNW,295,16.0,27.0,7,0.00,,,0.00,0.000000,,2013-10-08 05:53:00,
2013-10-07 23:02:00,68.0,2.0,-100.00,WNW,295,16.0,27.0,7,0.00,,,0.00,0.000000,,2013-10-08 06:02:00,
2013-10-07 23:12:00,68.0,2.0,-100.00,WNW,295,16.0,27.0,7,0.00,,,0.00,0.000000,,2013-10-08 06:12:00,
2013-10-07 23:22:00,68.0,2.0,-100.00,WNW,295,16.0,27.0,7,0.00,,,0.00,0.000000,,2013-10-08 06:22:00,
2013-10-07 23:52:00,68.0,-2.0,-100.00,WSW,258,18.0,32.0,6,0.00,,,0.00,0.000000,,2013-10-08 06:52:00,